Home > Time Zones > World Clock > Weather > France > Pau > Past weeks

Flag for France Weather past 2 weeks in Pau, France

Now
64 °F

Mostly cloudy.


Feels Like: 64 °F
Forecast: 58 / 77 °F
Wind: 1 mph from North

Location: Pau Airport

Current Time: Jul 8, 2015 at 4:20:40 AM

Latest Report: Jul 8, 2015 at 4:00 AM


Visibility: N/A

Pressure: 30.15 "Hg

Humidity: 94%

Dew point: 63 °F

Location of PauLocation

Historic Weather in Pau — Graph

°F

Pau temperature yesterday

Maximum temperature yesterday: 79 °F (at 5:30 PM)
Minimum temperature yesterday: 66 °F (at 5:00 AM)
Average temperature yesterday: 71 °F

Past Weeks' High & Low Weather Summary

 TemperatureHumidityPressure
High99 °F (Jun 30, 3:00 PM)100% (Jun 28, 5:30 AM)30.24 "Hg (Jun 28, 5:30 AM)
Low55 °F (Jun 25, 6:30 AM)33% (Jun 25, 5:00 PM)29.86 "Hg (Jun 30, 6:00 PM)
Average73 °F71%30.09 "Hg
* Reported Jun 23 3:00 AM — Jul 8 3:00 AM, Pau, Weather by CustomWeather, © 2015

Note: Actual official high and low records may vary slightly from our data, if they occured in-between our weather recording intervals... More about our weather records

Advertising

Pau weather history for previous 24 hours

 ConditionsComfort  
Time TempWeatherWind HumidityBarometerVisibility
3:00 AM
Wed, Jul 8
64 °FPartly cloudy.No wind94%30.15 "HgN/A
2:30 AM64 °FPassing clouds.2 mph94%30.15 "HgN/A
2:00 AM64 °FPassing clouds.1 mph88%30.15 "HgN/A
1:30 AM64 °FClear.No wind88%30.15 "Hg10 mi
1:00 AM66 °FPassing clouds.3 mph88%30.15 "HgN/A
12:30 AM66 °FPassing clouds.5 mph88%30.15 "HgN/A
11:30 PM
Tue, Jul 7
66 °FPassing clouds.7 mph88%30.15 "HgN/A
11:00 PM68 °FPassing clouds.7 mph83%30.15 "HgN/A
10:30 PM70 °FOvercast.8 mph78%30.15 "HgN/A
10:00 PM70 °FPartly sunny.8 mph78%30.12 "HgN/A
9:30 PM72 °FSunny.12 mph73%30.12 "Hg10 mi
9:00 PM72 °FSunny.9 mph69%30.12 "Hg10 mi
8:30 PM73 °FSunny.9 mph65%30.09 "Hg10 mi
8:00 PM75 °FSunny.10 mph61%30.09 "Hg10 mi
7:30 PM75 °FPassing clouds.9 mph61%30.09 "HgN/A
7:00 PM77 °FPassing clouds.12 mph61%30.09 "HgN/A
6:30 PM77 °FPassing clouds.12 mph61%30.09 "HgN/A
6:00 PM77 °FPassing clouds.10 mph61%30.09 "HgN/A
5:30 PM79 °FPassing clouds.10 mph58%30.09 "HgN/A
5:00 PM77 °FPartly sunny.8 mph65%30.09 "HgN/A
4:30 PM77 °FPartly sunny.8 mph65%30.09 "HgN/A
4:00 PM77 °FPartly sunny.10 mph65%30.09 "HgN/A
3:30 PM73 °FOvercast.10 mph74%30.09 "HgN/A
3:00 PM73 °FOvercast.9 mph74%30.09 "HgN/A
2:30 PM73 °FOvercast.10 mph74%30.09 "HgN/A
2:00 PM73 °FMostly cloudy.12 mph74%30.09 "HgN/A
1:30 PM72 °FMostly cloudy.9 mph78%30.09 "HgN/A
1:00 PM72 °FMild.10 mph78%30.09 "HgN/A
12:30 PM72 °FMostly cloudy.9 mph83%30.07 "HgN/A
12:00 PM70 °FMild.12 mph88%30.07 "HgN/A
11:30 AM70 °FOvercast.10 mph88%30.07 "HgN/A
11:00 AM70 °FOvercast.9 mph88%30.07 "HgN/A
10:30 AM70 °FOvercast.8 mph88%30.04 "HgN/A
10:00 AM70 °FOvercast.9 mph88%30.04 "HgN/A
9:30 AM70 °FLow clouds.9 mph88%30.04 "HgN/A
9:00 AM68 °FLow clouds.9 mph94%30.04 "HgN/A
8:30 AM68 °FLow clouds.8 mph88%30.04 "HgN/A
8:00 AM68 °FPartly sunny.6 mph88%30.04 "HgN/A
7:30 AM66 °FSunny.3 mph88%30.01 "Hg10 mi
7:00 AM66 °FClear.3 mph88%30.01 "Hg10 mi
6:30 AM66 °FClear.2 mph88%30.01 "Hg10 mi
6:00 AM68 °FClear.2 mph83%30.01 "Hg10 mi
5:30 AM66 °FPassing clouds.3 mph88%30.01 "HgN/A
5:00 AM66 °FClear.2 mph94%30.04 "Hg10 mi
4:30 AM68 °FClear.6 mph88%30.04 "Hg10 mi
4:00 AM68 °FPassing clouds.6 mph88%30.04 "HgN/A
Weather by CustomWeather, © 2015

See weather overviewHow to use our weather pages